Regional Weather Roundup
Issued by NWS Spokane, WA

Home | Current Version | Previous Version | Text Only | Print | Product List | Glossary On
Versions: 1 2 3 4 5 6 7 8 9 10 11 12 13 14 15 16 17 18 19 20 21 22 23 24 25 26 27 28 29 30 31 32 33 34 35 36 37 38 39 40 41 42 43 44 45 46 47 48 49 50
521
NZUS01 KOTX 231557
RWROTX

Eastern Washington/Northern Idaho Roundup
National Weather Service, Spokane WA
900 AM PDT SUN APR 23 2017

Note: "fair" indicated few or no clouds below 12,000 feet with no
significant weather and/or obstructions to visibility.

...Northeast Washington and Northern Idaho Panhandle...

CITY           SKY/WX    TMP DP  RH WIND       PRES   REMARKS
Spokane Intl   PTSUNNY   47  39  74 S17       29.85S
Spokane Downto PTSUNNY   50  41  71 SW10      29.87S
Coeur d Alene  CLOUDY    48  41  76 W5        29.86S
Deer Park      CLOUDY    48  39  71 S10       29.85F

...Southeast Washington and southern Idaho Panhandle...

CITY           SKY/WX    TMP DP  RH WIND       PRES   REMARKS
Walla Walla    CLOUDY    53  43  68 SW13      29.90F
Pullman/Moscow CLOUDY    47  42  83 S10       29.90F
Lowell           N/A     48  45  89 CALM      29.93S

...Columbia Basin...

CITY           SKY/WX    TMP DP  RH WIND       PRES   REMARKS
Ephrata        CLOUDY    50  37  61 SW6       29.84F
Moses Lake     CLOUDY    52  37  56 SW9       29.86F
Pasco          CLOUDY    56  40  55 SW14      29.90F
Hermiston      CLOUDY    55  43  63 SW13      29.91S
Pendleton      PTSUNNY   52  43  71 SW8       29.90F

...East Slopes Cascades...

CITY           SKY/WX    TMP DP  RH WIND       PRES   REMARKS
The Dalles     CLOUDY    54  46  74 CALM      29.92F
Yakima         CLOUDY    51  40  65 CALM      29.88F
Ellensburg     CLOUDY    47  38  71 SW6       29.87F
Omak           CLOUDY    48  36  63 N3        29.84F
Sunnyside      PTSUNNY   51  38  62 CALM      29.90S

...Southern British Columbia...

CITY           SKY/WX    TMP DP  RH WIND       PRES   REMARKS

...Western Montana...

CITY           SKY/WX    TMP DP  RH WIND       PRES   REMARKS
Missoula       LGT RAIN  43  40  89 NW12      29.86F

...Neighboring Cities...

CITY           SKY/WX    TMP DP  RH WIND       PRES   REMARKS
Seattle        CLOUDY    51  44  77 SE7       29.90S
Portland       CLOUDY    52  45  77 S10       29.93F
Boise          PTSUNNY   52  42  69 W5        29.86S
Great Falls    LGT RAIN  43  40  89 W8        29.79S



USA.gov is the U.S. government's official web portal to all federal, state and local government web resources and services.